QPF
0.00 0.00 0.00 0.00 0.00 0.00 0.00 0.00 0.00 0.00 0.00 0.00 0.00 0.00 0.00 0.00 0.00 0.01 0.00 0.00 0.01 0.00 0.00 0.00 0.01 0.01 0.01 0.02 0.02 0.02 0.02 0.02 0.01 0.02 0.03 0.03 0.03 0.02 0.02 0.02 0.02 0.03 0.04 0.05 0.03 0.02 0.02 0.02 0.02
0.00 0.00 0.00 0.00 0.00 0.00 0.00 0.00 0.00 0.00 0.00 0.00 0.00 0.00 0.00 0.00 0.00 0.00 0.00 0.01 0.01 0.01 0.00 0.00 0.01 0.01 0.01 0.01 0.01 0.02 0.02 0.02 0.02 0.02 0.03 0.03 0.04 0.03 0.02 0.03 0.03 0.04 0.04 0.03 0.02 0.01 0.01 0.02 0.01
0.00 0.00 0.00 0.00 0.00 0.00 0.00 0.00 0.00 0.00 0.00 0.00 0.00 0.00 0.00 0.00 0.00 0.00 0.01 0.01 0.01 0.01 0.01 0.00 0.01 0.01 0.01 0.01 0.01 0.02 0.02 0.03 0.03 0.03 0.03 0.03 0.02 0.02 0.02 0.03 0.03 0.03 0.03 0.02 0.02 0.02 0.01 0.01 0.01
0.00 0.00 0.00 0.00 0.00 0.00 0.00 0.00 0.00 0.00 0.00 0.00 0.00 0.00 0.00 0.00 0.00 0.00 0.01 0.01 0.01 0.01 0.01 0.01 0.01 0.01 0.01 0.02 0.02 0.02 0.02 0.02 0.03 0.03 0.03 0.03 0.02 0.02 0.02 0.03 0.02 0.02 0.02 0.02 0.01 0.01 0.01 0.01 0.01
0.00 0.00 0.00 0.00 0.00 0.00 0.00 0.00 0.00 0.00 0.00 0.00 0.00 0.00 0.00 0.00 0.00 0.01 0.00 0.00 0.00 0.01 0.01 0.01 0.01 0.01 0.01 0.01 0.02 0.03 0.03 0.03 0.03 0.04 0.03 0.03 0.03 0.02 0.03 0.02 0.02 0.02 0.01 0.02 0.01 0.01 0.00 0.00 0.01
0.01 0.00 0.00 0.00 0.00 0.00 0.00 0.00 0.00 0.00 0.00 0.00 0.00 0.00 0.00 0.00 0.00 0.00 0.00 0.00 0.00 0.01 0.01 0.01 0.01 0.02 0.01 0.01 0.02 0.03 0.03 0.04 0.04 0.04 0.04 0.05 0.04 0.04 0.04 0.02 0.02 0.03 0.03 0.03 0.02 0.01 0.01 0.01 0.01
0.01 0.00 0.00 0.00 0.00 0.00 0.00 0.00 0.00 0.00 0.00 0.00 0.00 0.00 0.00 0.01 0.00 0.00 0.00 0.00 0.00 0.01 0.01 0.02 0.01 0.01 0.02 0.02 0.02 0.03 0.03 0.04 0.05 0.05 0.05 0.04 0.04 0.04 0.04 0.03 0.02 0.02 0.03 0.03 0.01 0.01 0.01 0.01 0.01
0.01 0.00 0.00 0.00 0.00 0.00 0.00 0.00 0.00 0.00 0.00 0.00 0.00 0.00 0.00 0.00 0.00 0.00 0.01 0.01 0.01 0.01 0.02 0.02 0.02 0.03 0.03 0.03 0.02 0.01 0.02 0.03 0.03 0.03 0.02 0.02 0.02 0.03 0.03 0.02 0.01 0.02 0.02 0.02 0.01 0.01 0.00 0.00 0.00
0.01 0.01 0.00 0.00 0.00 0.00 0.00 0.00 0.00 0.00 0.00 0.00 0.00 0.00 0.00 0.00 0.00 0.01 0.01 0.01 0.02 0.02 0.02 0.02 0.03 0.04 0.04 0.03 0.02 0.02 0.02 0.02 0.02 0.02 0.02 0.02 0.03 0.03 0.03 0.03 0.01 0.01 0.01 0.02 0.02 0.01 0.00 0.00 0.00
0.01 0.01 0.00 0.00 0.00 0.00 0.00 0.00 0.00 0.00 0.00 0.00 0.00 0.00 0.00 0.00 0.01 0.01 0.01 0.02 0.02 0.03 0.04 0.04 0.04 0.04 0.05 0.04 0.03 0.04 0.03 0.02 0.02 0.02 0.02 0.02 0.02 0.03 0.02 0.02 0.02 0.01 0.01 0.01 0.02 0.01 0.00 0.00 0.01
0.01 0.00 0.00 0.00 0.00 0.00 0.00 0.00 0.00 0.00 0.00 0.00 0.00 0.00 0.00 0.00 0.01 0.01 0.01 0.02 0.02 0.03 0.04 0.05 0.05 0.05 0.05 0.04 0.03 0.03 0.03 0.02 0.02 0.02 0.02 0.02 0.03 0.03 0.02 0.03 0.02 0.02 0.01 0.01 0.01 0.01 0.01 0.01 0.02
0.00 0.00 0.00 0.00 0.00 0.00 0.00 0.00 0.00 0.00 0.00 0.00 0.00 0.00 0.00 0.00 0.01 0.01 0.01 0.01 0.02 0.03 0.05 0.06 0.06 0.07 0.08 0.06 0.04 0.03 0.02 0.02 0.02 0.03 0.03 0.03 0.03 0.02 0.03 0.03 0.03 0.02 0.01 0.02 0.01 0.01 0.01 0.01 0.01
0.00 0.00 0.00 0.00 0.00 0.00 0.00 0.00 0.00 0.00 0.00 0.00 0.00 0.00 0.00 0.00 0.00 0.01 0.01 0.01 0.01 0.03 0.04 0.05 0.06 0.07 0.08 0.08 0.07 0.04 0.03 0.02 0.02 0.02 0.04 0.05 0.04 0.02 0.02 0.03 0.04 0.03 0.02 0.02 0.02 0.01 0.01 0.00 0.00
0.00 0.00 0.00 0.00 0.00 0.00 0.00 0.00 0.00 0.00 0.00 0.00 0.00 0.00 0.00 0.00 0.01 0.01 0.01 0.01 0.01 0.02 0.03 0.04 0.05 0.06 0.07 0.08 0.07 0.05 0.03 0.03 0.02 0.02 0.02 0.03 0.05 0.05 0.03 0.03 0.04 0.03 0.02 0.02 0.01 0.01 0.01 0.00 0.00
0.00 0.01 0.01 0.01 0.00 0.00 0.00 0.00 0.00 0.00 0.00 0.00 0.00 0.01 0.00 0.00 0.01 0.01 0.01 0.02 0.02 0.02 0.03 0.03 0.05 0.05 0.06 0.07 0.07 0.05 0.04 0.02 0.02 0.02 0.02 0.02 0.04 0.05 0.05 0.05 0.05 0.04 0.03 0.02 0.01 0.01 0.00 0.00 0.00
0.01 0.01 0.02 0.01 0.00 0.00 0.00 0.01 0.00 0.00 0.00 0.00 0.00 0.01 0.02 0.01 0.00 0.00 0.01 0.02 0.03 0.03 0.03 0.04 0.04 0.05 0.06 0.06 0.07 0.06 0.04 0.02 0.01 0.01 0.02 0.02 0.03 0.04 0.04 0.05 0.05 0.04 0.02 0.01 0.01 0.00 0.00 0.00 0.00
0.02 0.02 0.01 0.01 0.00 0.00 0.01 0.01 0.00 0.00 0.00 0.00 0.00 0.01 0.02 0.02 0.01 0.01 0.01 0.01 0.03 0.03 0.03 0.04 0.03 0.04 0.05 0.07 0.08 0.07 0.05 0.03 0.02 0.01 0.01 0.02 0.03 0.03 0.04 0.03 0.04 0.05 0.03 0.01 0.01 0.00 0.00 0.00 0.00
0.03 0.02 0.01 0.01 0.01 0.01 0.01 0.01 0.00 0.00 0.00 0.00 0.00 0.01 0.01 0.02 0.01 0.01 0.01 0.02 0.03 0.04 0.04 0.04 0.03 0.04 0.04 0.07 0.09 0.09 0.09 0.06 0.03 0.02 0.01 0.02 0.03 0.03 0.04 0.04 0.05 0.08 0.05 0.02 0.01 0.01 0.00 0.00 0.00
0.02 0.02 0.01 0.01 0.01 0.01 0.01 0.01 0.01 0.01 0.00 0.01 0.01 0.01 0.01 0.01 0.01 0.02 0.03 0.03 0.03 0.04 0.04 0.04 0.04 0.04 0.04 0.05 0.07 0.10 0.10 0.09 0.07 0.04 0.03 0.03 0.04 0.03 0.03 0.04 0.05 0.10 0.08 0.03 0.01 0.01 0.01 0.00 0.00
0.02 0.02 0.02 0.02 0.01 0.01 0.01 0.01 0.01 0.01 0.01 0.01 0.01 0.01 0.01 0.02 0.03 0.03 0.04 0.04 0.04 0.04 0.04 0.04 0.04 0.04 0.04 0.05 0.05 0.06 0.10 0.09 0.08 0.06 0.04 0.05 0.06 0.05 0.03 0.03 0.06 0.10 0.10 0.04 0.01 0.00 0.01 0.00 0.00
0.01 0.02 0.03 0.04 0.02 0.01 0.02 0.02 0.02 0.01 0.01 0.01 0.01 0.01 0.01 0.01 0.02 0.03 0.03 0.04 0.04 0.04 0.04 0.05 0.05 0.05 0.04 0.04 0.06 0.05 0.07 0.11 0.10 0.08 0.07 0.05 0.08 0.09 0.05 0.03 0.05 0.09 0.09 0.05 0.01 0.01 0.01 0.01 0.00
0.02 0.01 0.02 0.03 0.03 0.03 0.02 0.04 0.03 0.03 0.01 0.01 0.01 0.01 0.01 0.01 0.03 0.03 0.03 0.03 0.04 0.04 0.05 0.05 0.06 0.05 0.05 0.04 0.05 0.05 0.05 0.06 0.08 0.08 0.07 0.06 0.06 0.09 0.09 0.06 0.05 0.08 0.08 0.06 0.02 0.01 0.01 0.01 0.01
0.02 0.02 0.03 0.03 0.02 0.02 0.02 0.03 0.03 0.03 0.01 0.01 0.02 0.02 0.02 0.02 0.03 0.04 0.04 0.04 0.03 0.04 0.05 0.07 0.06 0.05 0.05 0.04 0.04 0.04 0.04 0.04 0.05 0.07 0.07 0.07 0.07 0.07 0.09 0.08 0.07 0.08 0.08 0.06 0.03 0.01 0.01 0.01 0.01
0.02 0.02 0.03 0.03 0.04 0.04 0.02 0.03 0.04 0.03 0.02 0.02 0.02 0.03 0.04 0.04 0.03 0.04 0.05 0.05 0.05 0.06 0.06 0.08 0.07 0.06 0.05 0.05 0.04 0.04 0.03 0.04 0.05 0.05 0.07 0.07 0.06 0.07 0.08 0.10 0.08 0.07 0.09 0.08 0.05 0.02 0.01 0.01 0.01
0.04 0.06 0.08 0.09 0.08 0.05 0.02 0.02 0.04 0.04 0.02 0.03 0.04 0.05 0.05 0.05 0.05 0.05 0.05 0.06 0.08 0.08 0.09 0.09 0.07 0.07 0.06 0.06 0.06 0.05 0.04 0.04 0.05 0.05 0.05 0.07 0.07 0.07 0.06 0.07 0.07 0.06 0.08 0.08 0.06 0.03 0.02 0.02 0.02
0.05 0.05 0.07 0.06 0.04 0.03 0.02 0.02 0.03 0.03 0.02 0.02 0.04 0.05 0.06 0.05 0.05 0.05 0.05 0.05 0.06 0.10 0.11 0.10 0.10 0.08 0.07 0.07 0.07 0.05 0.05 0.05 0.05 0.05 0.05 0.06 0.07 0.06 0.06 0.05 0.05 0.05 0.06 0.08 0.06 0.03 0.02 0.02 0.02
0.04 0.04 0.04 0.05 0.03 0.03 0.02 0.02 0.03 0.04 0.02 0.02 0.02 0.04 0.05 0.06 0.05 0.05 0.05 0.05 0.06 0.07 0.11 0.12 0.12 0.10 0.08 0.07 0.08 0.06 0.04 0.04 0.05 0.05 0.05 0.05 0.06 0.07 0.06 0.05 0.06 0.06 0.05 0.06 0.06 0.03 0.02 0.01 0.01
0.03 0.03 0.04 0.05 0.05 0.03 0.02 0.02 0.04 0.04 0.04 0.03 0.03 0.03 0.04 0.04 0.04 0.04 0.04 0.05 0.06 0.06 0.09 0.11 0.12 0.14 0.10 0.07 0.07 0.08 0.06 0.04 0.04 0.05 0.05 0.04 0.04 0.07 0.07 0.06 0.05 0.05 0.05 0.05 0.05 0.03 0.01 0.01 0.01
0.03 0.04 0.04 0.05 0.05 0.04 0.04 0.04 0.04 0.04 0.04 0.04 0.03 0.03 0.04 0.04 0.04 0.04 0.04 0.05 0.06 0.06 0.07 0.08 0.10 0.14 0.10 0.08 0.06 0.06 0.06 0.05 0.04 0.04 0.05 0.04 0.04 0.05 0.06 0.05 0.05 0.05 0.04 0.04 0.05 0.03 0.02 0.01 0.01
0.03 0.04 0.04 0.04 0.04 0.04 0.05 0.06 0.05 0.05 0.05 0.05 0.05 0.05 0.05 0.05 0.05 0.04 0.04 0.04 0.04 0.05 0.07 0.07 0.06 0.13 0.12 0.10 0.08 0.05 0.04 0.04 0.05 0.04 0.05 0.05 0.05 0.05 0.06 0.05 0.05 0.05 0.04 0.03 0.03 0.03 0.02 0.01 0.01
MSLP
1013.83 1014.15 1014.64 1015.17 1015.66 1015.98 1016.09 1015.97 1015.68 1015.32 1015.01 1014.84 1014.89 1015.14 1015.53 1015.98 1016.35 1016.57 1016.58 1016.41 1016.12 1015.80 1015.56 1015.47 1015.57 1015.82 1016.17 1016.53 1016.84 1017.04 1017.13 1017.15 1017.14 1017.17 1017.27 1017.44 1017.67 1017.93 1018.15 1018.32 1018.41 1018.44 1018.45 1018.48 1018.55 1018.69 1018.88 1019.08 1019.26
1014.12 1014.49 1014.96 1015.44 1015.82 1016.01 1015.99 1015.78 1015.46 1015.15 1014.96 1014.98 1015.24 1015.71 1016.28 1016.84 1017.26 1017.45 1017.38 1017.10 1016.69 1016.27 1015.95 1015.81 1015.88 1016.12 1016.46 1016.82 1017.11 1017.31 1017.40 1017.42 1017.43 1017.48 1017.60 1017.80 1018.05 1018.31 1018.52 1018.66 1018.72 1018.73 1018.73 1018.75 1018.84 1019.00 1019.21 1019.43 1019.62
1014.39 1014.79 1015.24 1015.64 1015.90 1015.97 1015.83 1015.56 1015.25 1015.03 1015.01 1015.26 1015.76 1016.45 1017.20 1017.87 1018.31 1018.47 1018.31 1017.91 1017.38 1016.85 1016.44 1016.23 1016.26 1016.47 1016.79 1017.13 1017.41 1017.59 1017.67 1017.69 1017.71 1017.77 1017.90 1018.11 1018.36 1018.61 1018.81 1018.93 1018.98 1018.98 1018.97 1019.01 1019.12 1019.29 1019.52 1019.76 1019.95
1014.65 1015.08 1015.52 1015.86 1016.02 1015.99 1015.78 1015.48 1015.22 1015.14 1015.31 1015.79 1016.52 1017.41 1018.31 1019.06 1019.51 1019.60 1019.35 1018.83 1018.17 1017.54 1017.04 1016.77 1016.75 1016.92 1017.20 1017.50 1017.75 1017.90 1017.96 1017.97 1017.97 1018.03 1018.17 1018.37 1018.61 1018.85 1019.03 1019.14 1019.19 1019.19 1019.20 1019.26 1019.39 1019.59 1019.83 1020.07 1020.26
1014.96 1015.44 1015.88 1016.19 1016.30 1016.21 1015.98 1015.72 1015.55 1015.62 1015.98 1016.67 1017.60 1018.64 1019.64 1020.41 1020.84 1020.85 1020.48 1019.85 1019.09 1018.35 1017.78 1017.44 1017.36 1017.48 1017.70 1017.95 1018.14 1018.25 1018.27 1018.25 1018.24 1018.28 1018.41 1018.60 1018.83 1019.05 1019.23 1019.33 1019.38 1019.40 1019.43 1019.51 1019.66 1019.87 1020.12 1020.35 1020.52
1015.36 1015.91 1016.39 1016.71 1016.83 1016.75 1016.56 1016.38 1016.34 1016.57 1017.11 1017.95 1019.02 1020.15 1021.16 1021.91 1022.26 1022.17 1021.70 1020.96 1020.11 1019.30 1018.66 1018.27 1018.12 1018.16 1018.31 1018.48 1018.59 1018.63 1018.60 1018.54 1018.51 1018.54 1018.65 1018.83 1019.04 1019.25 1019.42 1019.52 1019.58 1019.61 1019.67 1019.77 1019.93 1020.14 1020.37 1020.58 1020.73
1015.88 1016.53 1017.08 1017.46 1017.64 1017.64 1017.55 1017.50 1017.60 1017.98 1018.66 1019.61 1020.73 1021.86 1022.82 1023.48 1023.72 1023.52 1022.95 1022.13 1021.22 1020.36 1019.68 1019.23 1019.01 1018.97 1019.01 1019.07 1019.09 1019.04 1018.95 1018.85 1018.79 1018.81 1018.91 1019.08 1019.28 1019.48 1019.63 1019.73 1019.79 1019.84 1019.90 1020.01 1020.17 1020.37 1020.58 1020.76 1020.87
1016.51 1017.25 1017.90 1018.38 1018.67 1018.80 1018.86 1018.96 1019.21 1019.72 1020.49 1021.48 1022.58 1023.64 1024.50 1025.02 1025.13 1024.82 1024.17 1023.31 1022.38 1021.51 1020.80 1020.31 1020.01 1019.86 1019.78 1019.70 1019.59 1019.45 1019.28 1019.14 1019.07 1019.09 1019.19 1019.36 1019.56 1019.75 1019.89 1019.98 1020.03 1020.07 1020.13 1020.23 1020.38 1020.55 1020.73 1020.86 1020.93
1017.19 1018.03 1018.78 1019.38 1019.80 1020.09 1020.31 1020.58 1020.99 1021.60 1022.42 1023.40 1024.41 1025.34 1026.04 1026.41 1026.39 1025.99 1025.30 1024.44 1023.53 1022.69 1021.99 1021.45 1021.07 1020.79 1020.56 1020.33 1020.09 1019.83 1019.59 1019.42 1019.33 1019.36 1019.48 1019.67 1019.87 1020.05 1020.17 1020.24 1020.27 1020.29 1020.33 1020.42 1020.54 1020.69 1020.82 1020.91 1020.94
1017.88 1018.78 1019.61 1020.32 1020.88 1021.33 1021.73 1022.16 1022.70 1023.39 1024.22 1025.13 1026.02 1026.79 1027.32 1027.53 1027.40 1026.96 1026.28 1025.47 1024.63 1023.85 1023.17 1022.61 1022.14 1021.73 1021.34 1020.94 1020.54 1020.16 1019.85 1019.65 1019.57 1019.62 1019.77 1019.98 1020.19 1020.36 1020.46 1020.50 1020.50 1020.49 1020.51 1020.57 1020.67 1020.79 1020.89 1020.94 1020.93
1018.53 1019.45 1020.33 1021.11 1021.79 1022.37 1022.92 1023.49 1024.14 1024.88 1025.69 1026.51 1027.27 1027.86 1028.23 1028.31 1028.11 1027.67 1027.05 1026.35 1025.62 1024.93 1024.30 1023.73 1023.18 1022.64 1022.08 1021.50 1020.95 1020.45 1020.07 1019.84 1019.77 1019.85 1020.04 1020.27 1020.49 1020.65 1020.73 1020.74 1020.71 1020.67 1020.65 1020.69 1020.77 1020.87 1020.95 1020.98 1020.94
1019.13 1020.02 1020.89 1021.70 1022.44 1023.12 1023.79 1024.47 1025.19 1025.95 1026.72 1027.45 1028.07 1028.52 1028.75 1028.74 1028.52 1028.12 1027.61 1027.05 1026.47 1025.90 1025.34 1024.77 1024.16 1023.49 1022.77 1022.03 1021.33 1020.73 1020.28 1020.02 1019.96 1020.07 1020.28 1020.54 1020.76 1020.91 1020.96 1020.94 1020.87 1020.80 1020.76 1020.78 1020.86 1020.95 1021.03 1021.05 1021.00
1019.73 1020.53 1021.34 1022.12 1022.86 1023.59 1024.32 1025.07 1025.83 1026.60 1027.33 1027.97 1028.47 1028.79 1028.92 1028.87 1028.66 1028.34 1027.97 1027.57 1027.16 1026.73 1026.26 1025.71 1025.05 1024.28 1023.43 1022.55 1021.73 1021.03 1020.52 1020.24 1020.18 1020.30 1020.53 1020.79 1021.00 1021.13 1021.15 1021.09 1020.99 1020.89 1020.84 1020.86 1020.93 1021.04 1021.13 1021.17 1021.12
1020.40 1021.08 1021.77 1022.45 1023.15 1023.86 1024.60 1025.37 1026.15 1026.90 1027.58 1028.15 1028.56 1028.79 1028.86 1028.79 1028.63 1028.41 1028.18 1027.95 1027.71 1027.42 1027.03 1026.52 1025.84 1025.01 1024.07 1023.10 1022.19 1021.43 1020.87 1020.56 1020.50 1020.61 1020.83 1021.06 1021.25 1021.34 1021.32 1021.22 1021.08 1020.96 1020.90 1020.92 1021.01 1021.14 1021.26 1021.33 1021.30
1021.24 1021.75 1022.28 1022.83 1023.42 1024.07 1024.77 1025.52 1026.29 1027.01 1027.65 1028.16 1028.50 1028.69 1028.72 1028.66 1028.55 1028.43 1028.33 1028.24 1028.14 1027.97 1027.67 1027.20 1026.54 1025.69 1024.72 1023.72 1022.77 1021.97 1021.39 1021.06 1020.96 1021.05 1021.22 1021.41 1021.54 1021.58 1021.51 1021.36 1021.18 1021.04 1020.97 1020.99 1021.09 1021.25 1021.40 1021.49 1021.50
1022.28 1022.63 1022.97 1023.36 1023.81 1024.35 1024.98 1025.68 1026.40 1027.09 1027.69 1028.15 1028.46 1028.61 1028.64 1028.59 1028.53 1028.48 1028.47 1028.49 1028.49 1028.40 1028.18 1027.77 1027.15 1026.34 1025.39 1024.41 1023.48 1022.69 1022.11 1021.76 1021.63 1021.66 1021.77 1021.88 1021.94 1021.89 1021.76 1021.55 1021.34 1021.17 1021.08 1021.09 1021.19 1021.36 1021.53 1021.65 1021.68
1023.54 1023.71 1023.87 1024.08 1024.38 1024.78 1025.31 1025.93 1026.60 1027.24 1027.80 1028.23 1028.51 1028.64 1028.67 1028.65 1028.61 1028.61 1028.66 1028.73 1028.78 1028.75 1028.58 1028.23 1027.67 1026.94 1026.08 1025.18 1024.32 1023.59 1023.03 1022.68 1022.51 1022.47 1022.49 1022.50 1022.46 1022.33 1022.12 1021.86 1021.60 1021.39 1021.27 1021.26 1021.34 1021.48 1021.65 1021.78 1021.83
1024.95 1024.96 1024.95 1024.98 1025.12 1025.39 1025.80 1026.32 1026.90 1027.48 1027.99 1028.39 1028.66 1028.79 1028.84 1028.83 1028.82 1028.84 1028.89 1028.97 1029.03 1029.02 1028.89 1028.59 1028.12 1027.49 1026.76 1025.99 1025.25 1024.61 1024.11 1023.77 1023.56 1023.45 1023.37 1023.28 1023.13 1022.91 1022.63 1022.32 1022.01 1021.76 1021.59 1021.53 1021.56 1021.65 1021.78 1021.88 1021.93
1026.38 1026.26 1026.11 1025.99 1025.98 1026.10 1026.38 1026.78 1027.27 1027.77 1028.22 1028.59 1028.85 1029.00 1029.07 1029.09 1029.10 1029.12 1029.17 1029.23 1029.27 1029.24 1029.12 1028.87 1028.49 1027.99 1027.41 1026.80 1026.21 1025.69 1025.27 1024.95 1024.72 1024.53 1024.36 1024.17 1023.93 1023.63 1023.29 1022.92 1022.58 1022.29 1022.07 1021.94 1021.88 1021.90 1021.95 1022.00 1022.01
1027.72 1027.50 1027.24 1027.00 1026.86 1026.85 1026.99 1027.26 1027.62 1028.02 1028.40 1028.73 1028.99 1029.16 1029.27 1029.33 1029.37 1029.41 1029.45 1029.48 1029.48 1029.43 1029.30 1029.09 1028.78 1028.41 1027.98 1027.54 1027.12 1026.74 1026.40 1026.12 1025.87 1025.63 1025.38 1025.11 1024.79 1024.43 1024.05 1023.67 1023.30 1022.97 1022.70 1022.49 1022.35 1022.25 1022.19 1022.15 1022.11
1028.86 1028.59 1028.26 1027.94 1027.70 1027.56 1027.55 1027.67 1027.88 1028.15 1028.44 1028.72 1028.96 1029.17 1029.33 1029.46 1029.57 1029.64 1029.69 1029.71 1029.68 1029.60 1029.46 1029.26 1029.02 1028.75 1028.46 1028.17 1027.90 1027.65 1027.41 1027.16 1026.91 1026.64 1026.34 1026.00 1025.64 1025.25 1024.87 1024.48 1024.12 1023.78 1023.47 1023.19 1022.94 1022.73 1022.54 1022.38 1022.25
1029.78 1029.49 1029.13 1028.77 1028.45 1028.20 1028.04 1027.98 1028.01 1028.12 1028.28 1028.49 1028.71 1028.95 1029.19 1029.42 1029.62 1029.78 1029.88 1029.91 1029.87 1029.77 1029.61 1029.42 1029.21 1029.01 1028.83 1028.66 1028.51 1028.36 1028.20 1028.00 1027.76 1027.46 1027.13 1026.77 1026.39 1026.02 1025.65 1025.31 1024.97 1024.65 1024.32 1023.99 1023.65 1023.31 1022.99 1022.70 1022.46
1030.49 1030.23 1029.89 1029.52 1029.14 1028.79 1028.48 1028.23 1028.05 1027.96 1027.97 1028.06 1028.25 1028.52 1028.84 1029.18 1029.51 1029.78 1029.97 1030.06 1030.04 1029.93 1029.76 1029.56 1029.37 1029.20 1029.08 1028.99 1028.93 1028.85 1028.75 1028.58 1028.35 1028.06 1027.72 1027.36 1027.00 1026.66 1026.34 1026.06 1025.78 1025.49 1025.17 1024.81 1024.40 1023.96 1023.52 1023.10 1022.74
1031.08 1030.89 1030.61 1030.26 1029.85 1029.40 1028.93 1028.48 1028.07 1027.75 1027.56 1027.52 1027.64 1027.92 1028.31 1028.77 1029.24 1029.66 1029.97 1030.14 1030.17 1030.08 1029.90 1029.69 1029.48 1029.32 1029.22 1029.17 1029.15 1029.12 1029.05 1028.91 1028.70 1028.42 1028.09 1027.74 1027.42 1027.12 1026.88 1026.66 1026.46 1026.23 1025.94 1025.57 1025.13 1024.62 1024.08 1023.55 1023.07
1031.64 1031.54 1031.34 1031.03 1030.61 1030.08 1029.46 1028.80 1028.15 1027.59 1027.18 1026.97 1026.99 1027.24 1027.69 1028.25 1028.86 1029.41 1029.85 1030.13 1030.23 1030.17 1029.99 1029.76 1029.53 1029.35 1029.24 1029.20 1029.19 1029.18 1029.14 1029.03 1028.83 1028.57 1028.26 1027.95 1027.66 1027.42 1027.24 1027.09 1026.96 1026.79 1026.55 1026.20 1025.75 1025.21 1024.61 1024.00 1023.42
1032.22 1032.23 1032.12 1031.87 1031.44 1030.84 1030.08 1029.22 1028.33 1027.52 1026.89 1026.49 1026.39 1026.59 1027.04 1027.67 1028.38 1029.06 1029.62 1029.99 1030.16 1030.14 1029.98 1029.74 1029.49 1029.28 1029.15 1029.10 1029.09 1029.10 1029.07 1028.98 1028.81 1028.57 1028.29 1028.01 1027.75 1027.55 1027.42 1027.33 1027.25 1027.14 1026.94 1026.64 1026.21 1025.66 1025.04 1024.38 1023.75
1032.81 1032.93 1032.90 1032.70 1032.27 1031.61 1030.73 1029.70 1028.61 1027.58 1026.73 1026.15 1025.91 1026.02 1026.44 1027.08 1027.85 1028.60 1029.24 1029.69 1029.92 1029.94 1029.79 1029.55 1029.29 1029.07 1028.93 1028.87 1028.87 1028.89 1028.89 1028.83 1028.69 1028.49 1028.23 1027.97 1027.74 1027.56 1027.45 1027.39 1027.35 1027.27 1027.11 1026.85 1026.45 1025.94 1025.33 1024.67 1024.01
1033.37 1033.55 1033.58 1033.41 1032.97 1032.26 1031.30 1030.14 1028.89 1027.69 1026.67 1025.93 1025.55 1025.55 1025.90 1026.51 1027.27 1028.04 1028.71 1029.20 1029.46 1029.52 1029.39 1029.17 1028.92 1028.71 1028.58 1028.53 1028.55 1028.61 1028.64 1028.62 1028.53 1028.36 1028.13 1027.89 1027.67 1027.49 1027.37 1027.31 1027.26 1027.19 1027.06 1026.83 1026.48 1026.01 1025.45 1024.82 1024.18
1033.78 1033.97 1034.00 1033.82 1033.37 1032.62 1031.60 1030.38 1029.05 1027.75 1026.62 1025.77 1025.29 1025.18 1025.43 1025.96 1026.65 1027.38 1028.02 1028.51 1028.78 1028.85 1028.76 1028.57 1028.35 1028.18 1028.08 1028.08 1028.15 1028.25 1028.34 1028.37 1028.33 1028.20 1028.00 1027.77 1027.55 1027.35 1027.20 1027.10 1027.03 1026.94 1026.81 1026.61 1026.30 1025.89 1025.39 1024.83 1024.23
1033.96 1034.07 1034.04 1033.79 1033.30 1032.52 1031.49 1030.27 1028.94 1027.64 1026.48 1025.59 1025.04 1024.85 1025.00 1025.42 1026.00 1026.64 1027.21 1027.65 1027.91 1027.99 1027.93 1027.78 1027.63 1027.51 1027.48 1027.54 1027.67 1027.83 1027.98 1028.07 1028.08 1028.00 1027.83 1027.62 1027.38 1027.16 1026.96 1026.81 1026.69 1026.56 1026.42 1026.22 1025.94 1025.59 1025.16 1024.68 1024.16
Thickness
5696 5701 5704 5699 5684 5679 5688 5711 5727 5732 5738 5746 5749 5747 5740 5735 5729 5717 5737 5748 5747 5742 5737 5733 5731 5730 5729 5728 5727 5726 5725 5724 5724 5723 5722 5721 5721 5720 5719 5718 5718 5717 5716 5715 5715 5714 5713 5712 5711
5691 5696 5694 5685 5672 5670 5690 5712 5719 5729 5737 5742 5742 5740 5736 5731 5734 5732 5737 5742 5742 5738 5733 5730 5728 5727 5725 5724 5723 5723 5722 5721 5720 5720 5719 5718 5717 5716 5716 5715 5715 5714 5713 5712 5711 5710 5710 5709 5708
5686 5689 5680 5674 5672 5678 5695 5715 5721 5728 5735 5733 5730 5733 5729 5724 5728 5729 5733 5737 5736 5733 5729 5726 5724 5722 5721 5720 5719 5719 5718 5717 5717 5716 5715 5715 5714 5713 5712 5711 5711 5710 5710 5709 5708 5707 5706 5706 5705
5678 5674 5671 5666 5673 5691 5701 5712 5719 5719 5723 5726 5722 5717 5721 5722 5724 5727 5731 5732 5730 5727 5724 5721 5719 5718 5716 5716 5715 5714 5714 5713 5712 5712 5711 5711 5710 5710 5709 5708 5707 5707 5706 5705 5704 5703 5703 5702 5702
5669 5662 5656 5659 5674 5691 5702 5710 5713 5709 5711 5715 5714 5708 5706 5715 5721 5723 5724 5724 5723 5721 5719 5715 5714 5712 5711 5711 5710 5710 5709 5708 5708 5707 5707 5707 5706 5705 5705 5704 5703 5703 5702 5701 5701 5700 5699 5699 5698
5653 5654 5648 5655 5673 5688 5696 5704 5704 5702 5703 5706 5705 5699 5696 5706 5710 5713 5716 5717 5717 5715 5712 5709 5708 5707 5706 5706 5705 5705 5704 5703 5703 5703 5702 5702 5702 5701 5700 5700 5699 5699 5698 5698 5697 5696 5696 5695 5695
5642 5643 5647 5660 5668 5676 5686 5695 5692 5691 5692 5694 5699 5691 5689 5694 5700 5705 5707 5708 5709 5708 5706 5703 5702 5701 5701 5700 5700 5699 5699 5698 5698 5698 5697 5697 5697 5697 5696 5696 5695 5695 5694 5694 5693 5692 5692 5691 5691
5639 5636 5643 5651 5656 5664 5676 5681 5683 5680 5682 5690 5690 5679 5677 5683 5692 5695 5697 5699 5700 5700 5699 5697 5696 5695 5695 5694 5694 5694 5693 5693 5693 5693 5692 5692 5692 5692 5691 5691 5691 5691 5690 5690 5689 5688 5688 5688 5688
5629 5620 5628 5640 5645 5652 5662 5663 5667 5672 5671 5674 5675 5672 5675 5679 5682 5683 5684 5686 5688 5689 5691 5691 5690 5690 5690 5689 5688 5688 5688 5688 5687 5687 5687 5687 5687 5687 5687 5687 5687 5687 5686 5686 5685 5685 5684 5684 5684
5613 5608 5622 5633 5637 5639 5644 5646 5649 5652 5652 5654 5657 5660 5663 5666 5668 5668 5670 5672 5675 5677 5681 5683 5684 5684 5684 5684 5683 5683 5683 5683 5683 5682 5682 5682 5683 5683 5683 5682 5682 5682 5682 5682 5681 5681 5681 5681 5680
5604 5604 5613 5618 5622 5624 5625 5628 5634 5632 5630 5636 5639 5643 5647 5651 5654 5656 5659 5662 5665 5668 5671 5674 5676 5678 5678 5678 5679 5678 5678 5678 5678 5678 5678 5678 5678 5678 5678 5678 5677 5677 5678 5678 5677 5677 5677 5677 5677
5591 5595 5599 5600 5603 5604 5606 5610 5613 5615 5618 5626 5631 5633 5634 5637 5641 5645 5648 5652 5655 5658 5661 5665 5668 5670 5672 5672 5673 5673 5673 5673 5673 5674 5674 5674 5674 5674 5674 5674 5674 5673 5673 5674 5674 5674 5674 5674 5674
5576 5580 5584 5586 5587 5588 5590 5591 5594 5597 5606 5614 5618 5620 5621 5624 5629 5634 5638 5642 5645 5648 5652 5656 5659 5662 5664 5665 5666 5668 5668 5668 5669 5669 5669 5670 5670 5670 5669 5670 5670 5670 5670 5670 5670 5670 5670 5670 5670
5563 5564 5566 5568 5570 5572 5573 5575 5576 5582 5592 5597 5601 5603 5607 5611 5616 5621 5626 5630 5634 5638 5642 5646 5650 5653 5656 5658 5659 5661 5663 5663 5663 5663 5664 5665 5665 5665 5665 5665 5665 5666 5666 5666 5666 5666 5666 5665 5665
5549 5545 5547 5551 5555 5558 5557 5555 5561 5570 5577 5581 5585 5589 5593 5598 5603 5608 5614 5618 5623 5627 5632 5636 5640 5644 5647 5650 5652 5654 5657 5658 5658 5658 5658 5659 5659 5659 5660 5659 5660 5661 5661 5661 5661 5661 5661 5660 5659
5531 5528 5527 5539 5544 5547 5541 5538 5551 5559 5563 5565 5570 5575 5579 5585 5590 5597 5603 5607 5612 5617 5621 5625 5630 5634 5638 5641 5644 5647 5649 5651 5652 5652 5652 5653 5653 5654 5654 5654 5654 5655 5656 5656 5656 5656 5655 5654 5653
5511 5508 5515 5525 5534 5535 5530 5526 5538 5545 5549 5550 5556 5561 5566 5571 5578 5585 5591 5597 5601 5606 5611 5615 5620 5624 5628 5632 5635 5639 5641 5644 5645 5646 5646 5646 5647 5647 5648 5648 5649 5650 5650 5651 5651 5650 5650 5648 5647
5493 5499 5507 5510 5519 5519 5513 5515 5524 5530 5535 5537 5541 5546 5552 5558 5565 5573 5579 5586 5591 5595 5600 5605 5609 5614 5619 5623 5626 5630 5633 5636 5637 5639 5639 5639 5640 5640 5641 5642 5643 5644 5644 5645 5645 5644 5644 5643 5642
5492 5493 5496 5506 5512 5505 5503 5505 5510 5516 5520 5523 5527 5532 5538 5546 5554 5561 5567 5574 5580 5585 5590 5595 5600 5604 5609 5613 5616 5619 5623 5627 5629 5631 5632 5633 5633 5634 5635 5636 5637 5638 5638 5639 5639 5639 5637 5636 5636
5481 5482 5486 5495 5500 5496 5492 5494 5501 5505 5508 5511 5516 5520 5526 5533 5540 5548 5555 5562 5569 5575 5580 5586 5590 5595 5599 5604 5609 5612 5615 5619 5621 5622 5624 5626 5627 5627 5628 5630 5631 5632 5631 5632 5633 5633 5630 5629 5630
5473 5472 5473 5474 5481 5487 5483 5482 5492 5498 5500 5503 5507 5512 5516 5521 5528 5536 5544 5550 5557 5564 5570 5576 5581 5586 5590 5596 5600 5603 5607 5610 5613 5615 5616 5618 5619 5621 5622 5623 5625 5626 5626 5626 5627 5627 5626 5624 5623
5461 5471 5468 5466 5462 5464 5474 5462 5482 5488 5490 5493 5496 5500 5504 5511 5517 5523 5531 5538 5545 5553 5560 5566 5571 5576 5581 5586 5590 5594 5598 5601 5606 5608 5609 5611 5613 5614 5615 5617 5618 5619 5619 5619 5620 5621 5621 5620 5618
5453 5460 5460 5459 5455 5453 5461 5453 5467 5479 5477 5481 5486 5490 5494 5499 5505 5511 5518 5526 5534 5541 5548 5555 5560 5566 5571 5577 5581 5585 5589 5593 5597 5601 5602 5603 5605 5607 5608 5610 5611 5612 5612 5613 5614 5614 5614 5614 5613
5449 5452 5456 5455 5448 5437 5452 5450 5452 5464 5468 5472 5475 5479 5483 5489 5495 5501 5507 5514 5522 5529 5536 5543 5549 5555 5561 5566 5571 5575 5579 5583 5587 5590 5593 5594 5597 5599 5600 5603 5604 5605 5605 5606 5607 5608 5608 5608 5608
5436 5429 5427 5430 5431 5436 5453 5446 5445 5459 5464 5465 5466 5469 5474 5479 5484 5490 5496 5502 5509 5517 5524 5532 5538 5544 5550 5556 5561 5565 5569 5573 5577 5581 5583 5585 5588 5590 5593 5594 5596 5598 5599 5599 5600 5601 5601 5601 5600
5420 5419 5412 5412 5420 5432 5444 5436 5444 5453 5453 5456 5459 5461 5465 5469 5474 5480 5486 5492 5498 5505 5512 5520 5527 5533 5539 5544 5549 5554 5559 5562 5567 5571 5574 5577 5581 5584 5585 5587 5588 5590 5591 5592 5592 5593 5593 5593 5593
5409 5408 5414 5408 5414 5415 5427 5437 5440 5443 5443 5445 5447 5451 5454 5459 5464 5469 5476 5482 5489 5495 5501 5509 5516 5522 5528 5533 5539 5544 5548 5551 5556 5560 5563 5567 5571 5575 5577 5579 5580 5581 5583 5583 5584 5584 5584 5585 5584
5403 5402 5399 5397 5396 5405 5421 5428 5419 5420 5426 5431 5435 5438 5442 5449 5455 5461 5467 5473 5479 5485 5491 5498 5504 5512 5516 5522 5528 5533 5536 5540 5544 5549 5553 5556 5560 5565 5568 5570 5572 5573 5574 5575 5575 5575 5576 5576 5576
5385 5386 5387 5392 5398 5396 5403 5407 5409 5408 5412 5414 5418 5423 5430 5437 5445 5452 5458 5464 5470 5476 5481 5487 5493 5499 5505 5510 5517 5521 5526 5529 5534 5538 5542 5546 5550 5554 5558 5561 5563 5564 5566 5566 5566 5567 5567 5567 5567
5378 5374 5371 5372 5379 5391 5392 5391 5400 5399 5402 5403 5406 5413 5420 5427 5433 5441 5448 5454 5460 5465 5471 5477 5483 5488 5493 5499 5505 5509 5514 5518 5523 5527 5531 5535 5539 5544 5548 5551 5554 5556 5557 5558 5558 5558 5558 5558 5558